Regional Weather Roundup
Issued by NWS Charleston, SC

Current Version | Previous Version | Text Only | Print | Product List | Glossary On
Versions: 1 2 3 4 5 6 7 8 9 10 11 12 13 14 15 16 17 18 19 20 21 22 23 24 25 26 27 28 29 30 31 32 33 34 35 36 37 38 39 40 41 42 43 44 45 46 47 48 49 50
000 ASUS42 KCHS 270112 RWRCHS REGIONAL WEATHER ROUNDUP NATIONAL WEATHER SERVICE CHARLESTON SC 900 PM EDT WED JUL 26 2017 NOTE: "FAIR" INDICATES FEW OR NO CLOUDS BELOW 12,000 FEET WITH NO SIGNIFICANT WEATHER AND/OR OBSTRUCTIONS TO VISIBILITY. NOT ALL STATIONS ARE QUALITY CONTROLLED. USE DATA WITH CAUTION... ESPECIALLY DEWPOINT OBSERVATIONS. SCZ027-030-031-034>040-042>050-270200- ...SOUTHEAST SOUTH CAROLINA... CITY SKY/WX TMP DP RH WIND PRES REMARKS N CHARLESTON MOCLDY 80 74 81 SE8 30.07R WATERFRONT PRK N/A 81 77 88 E9 30.05R JOHNS ISLAND FAIR 79 77 94 E5 30.08R PINOPOLIS N/A 79 75 89 CALM 30.01R MONCKS CORNER FAIR 75 73 94 CALM 30.08R SUMMERVILLE FAIR 79 75 89 CALM 30.08S BEAUFORT MCAS CLOUDY 80 74 81 E5 30.07R BEAUFORT ARPT FAIR 77 72 83 CALM 30.06S HILTON HEAD IS MOCLDY 81 73 78 CALM 30.07S WALTERBORO CLOUDY 79 73 83 CALM 30.08S ALLENDALE NOT AVBL ...SOUTHERN MIDLANDS AND PEE DEE... CITY SKY/WX TMP DP RH WIND PRES REMARKS GEORGETOWN FAIR 77 77 100 E3 30.09R KINGSTREE FAIR 75 72 88 E3 30.09R ORANGEBURG CLOUDY 78 74 87 CALM 30.08R BARNWELL FAIR 79 77 94 CALM 30.07S AIKEN FAIR 75 73 94 CALM 30.12R MANNING FAIR 77 75 94 CALM 30.09R COLUMBIA MOCLDY 81 72 74 S3 30.07S SUMTER CLEAR 78 72 80 CALM 30.06R FLORENCE CLOUDY 79 74 84 SE5 30.09R MYRTLE BEACH PTCLDY 81 75 83 E12 30.09R N MYRTLE BEACH PTCLDY 80 73 79 E9 30.08R $$ GAZ063-065-086>088-099>101-113>116-118-119-134>141-150-270200- ...SOUTHEAST GEORGIA... CITY SKY/WX TMP DP RH WIND PRES REMARKS SAVANNAH ARPT MOCLDY 80 72 76 E6 30.06S HUNTER AAF MOCLDY 78 73 82 E5 30.03S FORT STEWART MOCLDY 78 73 85 E3 30.04R STATESBORO PTCLDY 79 76 90 CALM 30.06S SYLVANIA CLOUDY 77 77 99 CALM 30.07F CLAXTON FAIR 79 77 94 CALM 30.06R ...CSRA...CENTRAL AND FAR SOUTHEAST GEORGIA... CITY SKY/WX TMP DP RH WIND PRES REMARKS THOMSON CLOUDY 75 74 97 CALM 30.13F AUGUSTA-BUSH CLOUDY 78 75 90 N5 30.06S AUGUSTA-DANIEL CLOUDY 78 72 81 CALM 30.08S SWAINSBORO FAIR 79 75 89 NE3 30.08R VIDALIA PTCLDY 79 75 89 CALM 30.07R EASTMAN FAIR 81 68 65 SE3 30.08R HAZLEHURST FAIR 79 77 93 E3 30.05S ALMA CLOUDY 76 74 93 CALM 30.05S WAYCROSS CLOUDY 78 78 100 E5 30.05S JESUP NOT AVBL BAXLEY MOCLDY 77 77 100 CALM 30.05R BRUNSWICK CLOUDY 77 77 100 CALM 30.05S SAINT SIMONS CLOUDY 78 76 93 E6 30.04R $$ SCZ027-028-034-036>038-045-046-048>050-GAZ119-141-270200- ...LAKE AND SUPPLEMENTAL COASTAL OBSERVATIONS... STATION/POSITION TIME TEMP WIND PRES WAVE SWELL AIR SEA DIR/SP/G HT/PER HT/PER/DIR (UTC) (F) (DEG/KT/KT) (MB) (FT/S) (FT/S/D) WINYAH BAY 2345 80 90/ 9 1018.0 LAKE MURRAY 0020 82 170/ 2/ 3 1017.3F ACE BASIN NERRS 2345 81 CALM 1018.0 FORT PULASKI 0048 81 85 130/ 7/ 10 1018.0F SAPELO ISLAND 0000 76 80/ 2 1017.0 $$ ANZ835-935-AMZ111-154-330-350-352-354-370-450-454-472-270200- ...C-MAN AND BUOY OBSERVATIONS... STATION/POSITION TIME TEMP WIND PRES WAVE SWELL AIR SEA DIR/SP/G HT/PER HT/PER/DIR (UTC) (F) (DEG/KT/KT) (MB) (FT/S) (FT/S/D) BUOY 41004 0050 80 83 150/ 6/ 8 1017.4F 2/10 2/120/10 BUOY 41008 0050 75 81 10/ 6/ 8 1017.3S 2/ 3 2/130/10 FOLLY BEACH CMAN 0100 80 100/ 9/ 10 1019.0R CAPERS NEARSHORE 0008 79 84 90/ 12/ 17 1017.8R FRIPP NEARSHORE 0008 81 84 90/ 10/ 12 1017.5F STATION/POSITION TIME TEMP WIND PRES WAVE SWELL AIR SEA DIR/SP/G HT/PER HT/PER/DIR (UTC) (F) (DEG/KT/KT) (MB) (FT/S) (FT/S/D) 5E ST. MARYS GA 0030 79 N/A 3/ 5 FRYING PAN BUOY 0050 82 82 70/ 14/ 17 1018.0R 3/ 5 2/120/10 BUOY 41025 0050 80 83 50/ 10/ 14 1019.1R 3/ 6 2/ 40/ 6 CAPE LOOKOUT NC 0100 78 60/ 13/ 14 1018.8S BUOY 41002 0050 81 83 140/ 6/ 8 1017.8F 3/ 9 2/100/ 9 BUOY 41010 0050 85 85 130/ 4/ 6 1017.5R ST AUGUSTINE FL 0100 79 77 150/ 9/ 10 1017.1R $$

USA.gov is the U.S. government's official web portal to all federal, state and local government web resources and services.